GW3762 Weather Reports


Display with metric or nautical units.
time (UTC)temp
F
wind
direction
speed
MPH
gust
MPH
rain 1hr
in
rain 24hr
in
rain mn
in
humidity
%
barometer
mb
20260509100459 46 57 3.0 8.0 0.00 0.00 0.00 92 1013.7
20260509095959 46 67 4.0 8.0 0.00 0.00 0.00 92 1013.5
20260509095457 46 70 5.0 8.0 0.00 0.00 0.00 92 1013.6
20260509094957 46 81 5.0 7.0 0.00 0.00 0.00 92 1013.6
20260509092456 46 72 5.0 6.0 0.00 0.00 0.00 92 1013.4
20260509091957 46 74 5.0 6.0 0.00 0.00 0.00 92 1013.6
20260509091457 46 75 3.0 6.0 0.00 0.00 0.00 92 1013.6
20260509090957 46 73 4.0 6.0 0.00 0.00 0.00 91 1013.7
20260509090457 46 70 2.0 5.0 0.00 0.00 0.00 91 1013.6
20260509085959 46 78 2.0 5.0 0.00 0.00 0.00 91 1013.7
20260509085457 46 74 2.0 4.0 0.00 0.00 0.00 91 1013.6
20260509084957 46 70 1.0 4.0 0.00 0.00 0.00 91 1013.7
20260509084458 46 78 4.0 4.0 0.00 0.00 0.00 91 1013.6
20260509083958 46 67 3.0 4.0 0.00 0.00 0.00 90 1013.6
20260509083457 46 76 3.0 4.0 0.00 0.00 0.00 90 1013.6
20260509082957 46 76 3.0 4.0 0.00 0.00 0.00 89 1013.7
20260509082458 46 69 2.0 3.0 0.00 0.00 0.00 89 1013.6
20260509081957 47 69 3.0 3.0 0.00 0.00 0.00 88 1013.7
20260509081457 47 69 3.0 3.0 0.00 0.00 0.00 87 1013.7
20260509080958 47 69 2.0 2.0 0.00 0.00 0.00 86 1013.7
20260509080457 48 67 0.0 0.0 0.00 0.00 0.00 84 1013.7
20260509075958 48 67 0.0 0.0 0.00 0.00 0.00 84 1013.7
20260509075457 48 67 0.0 1.0 0.00 0.00 0.00 84 1013.6
20260509074958 48 67 1.0 1.0 0.00 0.00 0.00 82 1013.5
20260509074458 48 67 1.0 3.0 0.00 0.00 0.00 81 1013.5
20260509073958 49 67 0.0 3.0 0.00 0.00 0.00 80 1013.4
20260509072958 49 67 1.0 3.0 0.00 0.00 0.00 79 1013.3
20260509072457 49 67 2.0 3.0 0.00 0.00 0.00 79 1013.2
20260509071958 49 67 2.0 3.0 0.00 0.00 0.00 79 1013.2
20260509071457 49 67 2.0 4.0 0.00 0.00 0.00 79 1013.2
20260509070958 49 69 3.0 4.0 0.00 0.00 0.00 79 1013.2
20260509070457 49 71 3.0 4.0 0.00 0.00 0.00 79 1013.2
20260509065958 49 69 2.0 4.0 0.00 0.00 0.00 79 1013.2
20260509064957 49 246 3.0 3.0 0.00 0.00 0.00 80 1013.3
20260509064457 49 246 1.0 3.0 0.00 0.00 0.00 80 1013.4
20260509063456 49 246 1.0 2.0 0.00 0.00 0.00 80 1013.5
20260509062456 49 243 1.0 3.0 0.00 0.00 0.00 80 1013.7
20260509061957 49 243 2.0 3.0 0.00 0.00 0.00 81 1013.7
20260509061457 49 243 0.0 0.0 0.00 0.00 0.00 81 1013.8
20260509060956 49 243 0.0 0.0 0.00 0.00 0.00 81 1014.0
20260509060457 49 243 0.0 0.0 0.00 0.00 0.00 81 1014.0
20260509055959 49 243 0.0 0.0 0.00 0.00 0.00 82 1013.9
20260509055458 49 243 0.0 0.0 0.00 0.00 0.00 82 1013.9
20260509054458 49 243 0.0 0.0 0.00 0.00 0.00 82 1013.9
20260509053958 49 243 0.0 0.0 0.00 0.00 0.00 82 1013.9
20260509052957 49 243 0.0 0.0 0.00 0.00 0.00 82 1013.9
20260509052457 49 243 0.0 0.0 0.00 0.00 0.00 82 1013.9
20260509051957 49 243 0.0 0.0 0.00 0.00 0.00 82 1013.8
20260509051457 49 243 0.0 0.0 0.00 0.00 0.00 82 1013.9
20260509050958 49 243 0.0 0.0 0.00 0.00 0.00 82 1013.9
20260509050458 49 243 0.0 0.0 0.00 0.00 0.00 83 1014.0
20260509045957 49 243 0.0 0.0 0.00 0.00 0.00 83 1014.0
20260509045456 49 243 0.0 2.0 0.00 0.00 0.00 82 1013.9
20260509044956 49 243 1.0 2.0 0.00 0.00 0.00 82 1014.0
20260509044457 49 243 1.0 2.0 0.00 0.00 0.00 82 1014.0
20260509043956 49 243 1.0 2.0 0.00 0.00 0.00 82 1014.0
20260509043456 49 243 2.0 2.0 0.00 0.00 0.00 82 1014.0
20260509042458 49 243 2.0 4.0 0.00 0.00 0.00 81 1014.0
20260509041958 49 243 2.0 4.0 0.00 0.00 0.00 80 1014.2
20260509041458 49 240 3.0 4.0 0.00 0.00 0.00 80 1014.1
20260509040458 49 76 1.0 3.0 0.00 0.00 0.00 78 1014.2
20260509035959 49 74 1.0 1.0 0.00 0.00 0.00 76 1014.1
20260509035458 49 74 1.0 1.0 0.00 0.00 0.00 75 1014.1
20260509034958 49 74 0.0 0.0 0.00 0.00 0.00 73 1014.0
20260509033958 49 74 0.0 0.0 0.00 0.00 0.00 71 1014.0
20260509033458 49 74 0.0 2.0 0.00 0.00 0.00 70 1014.0
20260509032958 49 74 0.0 2.0 0.00 0.00 0.00 69 1013.9
20260509032458 49 74 0.0 2.0 0.00 0.00 0.00 68 1013.8
20260509031958 49 74 1.0 2.0 0.00 0.00 0.00 67 1013.8
20260509031458 49 74 1.0 2.0 0.00 0.00 0.00 67 1013.7
20260509030958 50 74 1.0 2.0 0.00 0.00 0.00 68 1013.7
20260509030458 50 74 1.0 2.0 0.00 0.00 0.00 64 1013.8
20260509030003 51 74 1.0 2.0 0.00 0.00 0.00 65 1013.7
20260509024959 51 74 1.0 2.0 0.00 0.00 0.00 60 1013.7
20260509024459 51 74 1.0 3.0 0.00 0.00 0.00 60 1013.5
20260509023959 51 74 3.0 3.0 0.00 0.00 0.00 61 1013.5
20260509023459 51 261 0.0 0.0 0.00 0.00 0.00 59 1013.5
20260509023000 51 261 0.0 0.0 0.00 0.00 0.00 60 1013.6
20260509022459 51 261 0.0 1.0 0.00 0.00 0.00 61 1013.6
20260509021959 51 261 1.0 1.0 0.00 0.00 0.00 63 1013.5
20260509021459 50 261 1.0 1.0 0.00 0.00 0.00 63 1013.6
20260509020959 50 261 0.0 2.0 0.00 0.00 0.00 62 1013.6
20260509020459 50 261 0.0 2.0 0.00 0.00 0.00 60 1013.5
20260509020002 50 261 1.0 1.0 0.00 0.00 0.00 59 1013.5
20260509015459 51 261 0.0 0.0 0.00 0.00 0.00 60 1013.5
20260509014959 51 261 0.0 0.0 0.00 0.00 0.00 58 1013.5
20260509014500 50 261 0.0 0.0 0.00 0.00 0.00 59 1013.4
20260509014000 50 261 0.0 0.0 0.00 0.00 0.00 59 1013.4
20260509013459 50 261 0.0 0.0 0.00 0.00 0.00 61 1013.3
20260509013000 50 261 0.0 0.0 0.00 0.00 0.00 64 1013.3
20260509012459 50 261 0.0 0.0 0.00 0.00 0.00 64 1013.3
20260509011959 50 261 0.0 0.0 0.00 0.00 0.00 63 1013.2
20260509011459 50 261 0.0 0.0 0.00 0.00 0.00 63 1013.2
20260509010959 50 261 0.0 0.0 0.00 0.00 0.00 63 1013.1
20260509010002 50 261 0.0 0.0 0.00 0.00 0.00 61 1012.9
20260509005459 50 261 0.0 0.0 0.00 0.00 0.00 61 1012.7
20260509004959 51 261 0.0 0.0 0.00 0.00 0.00 62 1012.7
20260509004459 51 261 0.0 0.0 0.00 0.00 0.00 61 1012.6
20260509003959 51 261 0.0 0.0 0.00 0.00 0.00 61 1012.4
20260509003459 51 261 0.0 0.0 0.00 0.00 0.00 62 1012.3
20260509002959 51 261 0.0 0.0 0.00 0.00 0.00 62 1012.2
20260509002501 51 261 0.0 0.0 0.00 0.00 0.00 63 1012.2
20260509001959 51 261 0.0 0.0 0.00 0.00 0.00 63 1012.1
20260509001459 51 261 0.0 0.0 0.00 0.00 0.00 64 1012.2
20260509000959 51 261 0.0 0.0 0.00 0.00 0.00 63 1012.3
20260509000459 51 261 0.0 0.0 0.00 0.00 0.00 64 1012.2
20260508234958 51 261 0.0 1.0 0.00 0.00 0.00 66 1012.0
20260508234458 51 261 0.0 3.0 0.00 0.00 0.00 66 1011.9
20260508233958 52 261 0.0 3.0 0.00 0.00 0.00 65 1011.8
20260508233457 52 261 2.0 3.0 0.00 0.00 0.00 65 1011.8
20260508232958 52 261 2.0 3.0 0.00 0.00 0.00 65 1011.7
20260508232458 53 261 1.0 3.0 0.00 0.00 0.00 64 1011.6
20260508231958 53 261 2.0 4.0 0.00 0.00 0.00 64 1011.5
20260508231458 53 261 2.0 4.0 0.00 0.00 0.00 63 1011.4
20260508230958 54 252 2.0 4.0 0.00 0.00 0.00 62 1011.4
20260508230458 54 257 2.0 4.0 0.00 0.00 0.00 62 1011.4
20260508225958 54 269 3.0 7.0 0.00 0.00 0.00 63 1011.4
20260508225458 54 247 3.0 7.0 0.00 0.00 0.00 60 1011.3
20260508224958 54 261 3.0 7.0 0.00 0.00 0.00 62 1011.2
20260508224458 54 254 4.0 7.0 0.00 0.00 0.00 63 1011.1
20260508223958 54 254 2.0 4.0 0.00 0.00 0.00 63 1011.0
20260508222958 55 257 2.0 4.0 0.00 0.00 0.00 62 1011.1
20260508222459 55 252 0.0 4.0 0.00 0.00 0.00 63 1011.1
20260508221458 55 246 2.0 7.0 0.00 0.00 0.00 62 1011.2
20260508220458 55 277 3.0 5.0 0.00 0.00 0.00 62 1011.3
20260508215959 55 250 2.0 4.0 0.00 0.00 0.00 63 1011.3
20260508215459 55 258 1.0 7.0 0.00 0.00 0.00 64 1011.3
20260508214958 55 257 3.0 8.0 0.00 0.00 0.00 61 1011.3
20260508214500 55 257 4.0 8.0 0.00 0.00 0.00 60 1011.2
20260508213958 55 244 4.0 7.0 0.00 0.00 0.00 61 1011.2
20260508213457 55 242 2.0 6.0 0.00 0.00 0.00 63 1011.3
20260508212958 55 261 4.0 7.0 0.00 0.00 0.00 63 1011.3
20260508212458 55 237 5.0 6.0 0.00 0.00 0.00 61 1011.2
20260508211457 56 261 3.0 9.0 0.00 0.00 0.00 61 1011.2
20260508210957 56 245 2.0 7.0 0.00 0.00 0.00 62 1011.1
20260508210458 56 239 3.0 7.0 0.00 0.00 0.00 63 1011.1
20260508205500 56 283 2.0 8.0 0.00 0.00 0.00 62 1011.3
20260508205000 56 257 2.0 8.0 0.00 0.00 0.00 65 1011.3
20260508204459 56 274 3.0 9.0 0.00 0.00 0.00 62 1011.1
20260508204000 56 252 4.0 9.0 0.00 0.00 0.00 64 1011.0
20260508203458 56 256 2.0 6.0 0.00 0.00 0.00 63 1011.2
20260508202959 55 264 2.0 5.0 0.00 0.00 0.00 67 1011.2
20260508202459 54 257 3.0 5.0 0.00 0.00 0.00 65 1011.1
20260508201959 55 249 2.0 9.0 0.00 0.00 0.00 64 1011.2
20260508201459 55 230 3.0 13.0 0.00 0.00 0.00 62 1011.4
20260508200959 56 219 9.0 13.0 0.00 0.00 0.00 60 1011.4
20260508200459 56 234 7.0 10.0 0.00 0.00 0.00 65 1011.4
20260508195959 56 244 4.0 11.0 0.00 0.00 0.00 64 1011.4
20260508195458 55 244 4.0 9.0 0.00 0.00 0.00 66 1011.4
20260508194958 53 243 6.0 9.0 0.00 0.00 0.00 67 1011.4
20260508194458 52 288 3.0 9.0 0.00 0.00 0.00 67 1011.5
20260508193959 53 250 5.0 9.0 0.00 0.00 0.00 67 1011.5
20260508193458 53 250 4.0 8.0 0.00 0.00 0.00 66 1011.6
20260508191959 54 286 2.0 10.0 0.00 0.00 0.00 64 1011.5
20260508191459 54 252 3.0 11.0 0.00 0.00 0.00 61 1011.3
20260508190959 55 259 3.0 16.0 0.00 0.00 0.00 58 1011.2
20260508190458 55 240 10.0 16.0 0.00 0.00 0.00 56 1010.8
20260508190000 55 244 5.0 13.0 0.00 0.00 0.00 54 1010.7
20260508185458 56 231 4.0 9.0 0.00 0.00 0.00 54 1010.6
20260508184958 57 251 4.0 13.0 0.00 0.00 0.00 53 1010.4
20260508184458 58 244 10.0 12.0 0.00 0.00 0.00 50 1010.3
20260508183958 59 229 4.0 9.0 0.00 0.00 0.00 50 1010.3
20260508183501 59 252 8.0 9.0 0.00 0.00 0.00 52 1010.5
20260508182957 58 274 2.0 5.0 0.00 0.00 0.00 52 1010.8
20260508182457 59 250 4.0 9.0 0.00 0.00 0.00 53 1010.8
20260508181958 59 241 4.0 9.0 0.00 0.00 0.00 53 1010.8
20260508180458 54 232 4.0 12.0 0.00 0.00 0.00 59 1011.0
20260508180001 54 255 7.0 12.0 0.00 0.00 0.00 54 1011.1
20260508175500 55 228 6.0 11.0 0.00 0.00 0.00 55 1011.1
20260508174959 55 217 3.0 10.0 0.00 0.00 0.00 56 1010.9
20260508174000 55 229 5.0 17.0 0.00 0.00 0.00 53 1010.9
20260508173458 56 226 7.0 16.0 0.00 0.00 0.00 51 1010.8
20260508173006 57 286 4.0 11.0 0.00 0.00 0.00 50 1011.0
20260508172000 58 265 6.0 15.0 0.00 0.00 0.00 52 1010.9
20260508171459 57 229 1.0 5.0 0.00 0.00 0.00 50 1011.0
20260508170959 55 254 1.0 7.0 0.00 0.00 0.00 55 1011.1
20260508170459 55 249 5.0 7.0 0.00 0.00 0.00 53 1011.0
20260508170000 55 249 2.0 10.0 0.00 0.00 0.00 52 1011.1
20260508165457 55 256 7.0 12.0 0.00 0.00 0.00 52 1011.0
20260508164957 56 259 10.0 10.0 0.00 0.00 0.00 52 1011.0
20260508164458 57 252 5.0 12.0 0.00 0.00 0.00 49 1010.9
20260508163458 58 240 3.0 9.0 0.00 0.00 0.00 47 1011.0
20260508163001 60 252 5.0 9.0 0.00 0.00 0.00 50 1011.0
20260508162500 60 229 7.0 9.0 0.00 0.00 0.00 49 1011.1
20260508161957 60 249 5.0 8.0 0.00 0.00 0.00 45 1011.0
20260508161502 60 260 6.0 11.0 0.00 0.00 0.00 48 1011.2
20260508160457 59 246 3.0 8.0 0.00 0.00 0.00 48 1011.1
20260508155959 58 289 3.0 8.0 0.00 0.00 0.00 46 1011.4
20260508155457 56 254 3.0 5.0 0.00 0.00 0.00 51 1011.3
20260508154958 58 233 3.0 10.0 0.00 0.00 0.00 48 1011.4
20260508154458 59 286 2.0 11.0 0.00 0.00 0.00 46 1011.4
20260508153457 59 263 6.0 13.0 0.00 0.00 0.00 50 1011.3
20260508152958 59 251 7.0 13.0 0.00 0.00 0.00 50 1011.3
20260508152458 58 252 3.0 9.0 0.00 0.00 0.00 52 1011.3
20260508151958 60 259 9.0 9.0 0.00 0.00 0.00 56 1011.4
20260508151458 59 257 1.0 7.0 0.00 0.00 0.00 60 1011.4
20260508150958 58 263 7.0 8.0 0.00 0.00 0.00 55 1011.5
20260508150458 58 232 3.0 8.0 0.00 0.00 0.00 54 1011.5
20260508150000 58 242 5.0 5.0 0.00 0.00 0.00 55 1011.5
20260508145457 58 247 1.0 5.0 0.00 0.00 0.00 56 1011.6
20260508144958 58 225 3.0 4.0 0.00 0.00 0.00 53 1011.5
20260508144459 58 238 3.0 5.0 0.00 0.00 0.00 54 1011.5
20260508143957 57 265 3.0 5.0 0.00 0.00 0.00 55 1011.5
20260508143458 57 281 2.0 5.0 0.00 0.00 0.00 54 1011.5
20260508142957 57 291 2.0 7.0 0.00 0.00 0.00 57 1011.5
20260508142458 57 271 2.0 8.0 0.00 0.00 0.00 56 1011.7
20260508141958 56 224 2.0 8.0 0.00 0.00 0.00 54 1011.6
20260508141458 56 267 2.0 4.0 0.00 0.00 0.00 58 1011.7
20260508141001 55 238 2.0 6.0 0.00 0.00 0.00 59 1011.8
20260508140503 56 232 1.0 5.0 0.00 0.00 0.00 57 1011.8
20260508140000 56 221 3.0 6.0 0.00 0.00 0.00 54 1011.7
20260508135458 55 284 3.0 6.0 0.00 0.00 0.00 57 1011.8
20260508134958 55 246 2.0 6.0 0.00 0.00 0.00 59 1011.7
20260508134457 55 247 3.0 6.0 0.00 0.00 0.00 59 1011.8
20260508133957 55 248 2.0 5.0 0.00 0.00 0.00 63 1011.8
20260508133001 54 296 3.0 4.0 0.00 0.00 0.00 58 1012.0
20260508132458 54 288 2.0 4.0 0.00 0.00 0.00 62 1012.1
20260508131459 53 266 2.0 4.0 0.00 0.00 0.00 61 1012.2
20260508130958 53 283 2.0 5.0 0.00 0.00 0.00 62 1012.2
20260508130458 52 256 2.0 5.0 0.00 0.00 0.00 68 1012.2
20260508125959 51 259 3.0 4.0 0.00 0.00 0.00 67 1012.2
20260508125458 50 277 3.0 5.0 0.00 0.00 0.00 68 1012.2
20260508125001 50 269 2.0 5.0 0.00 0.00 0.00 69 1012.2
20260508124458 49 250 2.0 4.0 0.00 0.00 0.00 72 1012.1
20260508123958 49 262 2.0 3.0 0.00 0.00 0.00 72 1012.2
20260508123458 49 267 2.0 3.0 0.00 0.00 0.00 71 1012.2
20260508122958 48 256 2.0 3.0 0.00 0.00 0.00 73 1012.1
20260508122457 48 270 2.0 4.0 0.00 0.00 0.00 74 1012.1
20260508121958 47 264 2.0 4.0 0.00 0.00 0.00 75 1012.1
20260508121458 47 260 2.0 4.0 0.00 0.00 0.00 74 1012.1
20260508120957 47 266 0.0 6.0 0.00 0.00 0.00 75 1012.1
20260508120458 47 273 3.0 4.0 0.00 0.00 0.00 77 1012.0
20260508115959 47 263 1.0 6.0 0.00 0.00 0.00 77 1012.0
20260508115457 46 252 3.0 5.0 0.00 0.00 0.00 78 1012.0
20260508114958 46 266 2.0 4.0 0.00 0.00 0.00 78 1011.9
20260508114458 46 263 2.0 4.0 0.00 0.00 0.00 78 1011.9
20260508113957 46 265 2.0 5.0 0.00 0.00 0.00 79 1011.8
20260508113457 45 253 2.0 5.0 0.00 0.00 0.00 80 1011.9
20260508112957 45 250 4.0 6.0 0.00 0.00 0.00 80 1011.8
20260508112457 45 257 2.0 6.0 0.00 0.00 0.00 80 1011.7
20260508111958 45 256 3.0 4.0 0.00 0.00 0.00 80 1011.8
20260508111458 45 259 4.0 6.0 0.00 0.00 0.00 81 1011.8
20260508110958 44 259 2.0 6.0 0.00 0.00 0.00 81 1011.7
20260508110457 44 256 3.0 4.0 0.00 0.00 0.00 80 1011.7
20260508105956 44 258 3.0 6.0 0.00 0.00 0.00 81 1011.8
20260508105456 44 257 4.0 6.0 0.00 0.00 0.00 81 1011.8
20260508104457 44 257 3.0 4.0 0.00 0.00 0.00 81 1011.7
20260508103956 44 257 3.0 4.0 0.00 0.00 0.00 81 1011.6
20260508103456 43 257 2.0 4.0 0.00 0.00 0.00 82 1011.5
20260508102957 43 257 2.0 4.0 0.00 0.00 0.00 81 1011.5
20260508102456 43 257 3.0 4.0 0.00 0.00 0.00 81 1011.5
20260508101956 43 257 3.0 4.0 0.00 0.00 0.00 80 1011.5
20260508101459 43 257 2.0 3.0 0.00 0.00 0.00 80 1011.3
20260508100956 43 257 2.0 3.0 0.00 0.00 0.00 80 1011.2